time, Switch, Flow(0), Analog(2)
yyyy/mm/dd HH:MM:SS.fff, True=FILTERED|False=TOTAL, L/min, V
2023/07/06 10:00:03.880, True, 4.311, 0.153964
2023/07/06 10:00:04.385, True, 2.984, 0.155489
2023/07/06 10:00:04.888, True, 1.661, 0.158312
2023/07/06 10:00:05.385, True, 1.010, 0.154345
2023/07/06 10:00:05.889, True, 0.994, 0.155718
2023/07/06 10:00:06.385, True, 1.011, 0.156252
2023/07/06 10:00:06.889, True, 0.996, 0.156329
2023/07/06 10:00:07.392, True, 0.994, 0.157473
2023/07/06 10:00:07.897, True, 0.995, 0.155032
2023/07/06 10:00:08.392, True, 0.675, 0.153506
2023/07/06 10:00:08.897, True, 0.994, 0.157015
2023/07/06 10:00:09.401, True, 0.995, 0.157397
2023/07/06 10:00:09.897, True, 1.011, 0.153735
2023/07/06 10:00:10.401, True, 0.663, 0.156634
2023/07/06 10:00:10.905, True, 0.995, 0.157168
2023/07/06 10:00:11.401, True, 1.011, 0.155871
2023/07/06 10:00:11.905, True, 0.994, 0.156176
2023/07/06 10:00:12.409, True, 0.664, 0.155947
2023/07/06 10:00:12.905, True, 1.010, 0.155489
2023/07/06 10:00:13.409, True, 0.995, 0.154040
2023/07/06 10:00:13.913, True, 0.996, 0.155261
2023/07/06 10:00:14.409, True, 0.674, 0.157321
2023/07/06 10:00:14.913, True, 0.995, 0.156863
2023/07/06 10:00:15.417, True, 0.995, 0.155184
2023/07/06 10:00:15.913, True, 1.011, 0.154650
2023/07/06 10:00:16.417, True, 0.995, 0.153964
2023/07/06 10:00:16.921, True, 0.662, 0.157931
2023/07/06 10:00:17.417, True, 1.011, 0.153964
2023/07/06 10:00:17.921, True, 0.995, 0.155718
2023/07/06 10:00:18.425, True, 0.995, 0.154040
2023/07/06 10:00:18.929, True, 0.663, 0.153506
2023/07/06 10:00:19.425, True, 1.011, 0.154345
2023/07/06 10:00:19.929, True, 0.995, 0.155566
2023/07/06 10:00:20.424, True, 0.675, 0.156863
2023/07/06 10:00:20.929, True, 0.993, 0.156100
2023/07/06 10:00:21.433, True, 0.995, 0.154345
2023/07/06 10:00:21.929, True, 0.674, 0.156100
2023/07/06 10:00:22.433, True, 0.995, 0.156176
2023/07/06 10:00:22.937, True, 0.995, 0.157473
2023/07/06 10:00:23.441, True, 0.663, 0.154574
2023/07/06 10:00:23.937, True, 1.011, 0.155261
2023/07/06 10:00:24.441, True, 0.995, 0.156481
2023/07/06 10:00:24.945, True, 0.663, 0.155337
2023/07/06 10:00:25.441, True, 1.011, 0.155337
2023/07/06 10:00:25.945, True, 0.995, 0.155261
2023/07/06 10:00:26.449, True, 0.663, 0.155795
2023/07/06 10:00:26.945, True, 1.011, 0.155642
2023/07/06 10:00:27.449, True, 0.995, 0.155947
2023/07/06 10:00:27.953, True, 0.994, 0.156939
2023/07/06 10:00:28.449, True, 0.676, 0.155261
2023/07/06 10:00:28.952, True, 0.993, 0.156710
2023/07/06 10:00:29.457, True, 0.995, 0.157549
2023/07/06 10:00:29.953, True, 1.011, 0.155642
2023/07/06 10:00:30.457, True, 0.663, 0.156405
2023/07/06 10:00:30.961, True, 0.995, 0.154345
2023/07/06 10:00:31.457, True, 1.011, 0.157321
2023/07/06 10:00:31.961, True, 0.996, 0.157168
2023/07/06 10:00:32.465, True, 0.993, 0.153735
2023/07/06 10:00:32.961, True, 0.674, 0.159533
2023/07/06 10:00:33.465, True, 0.994, 0.155032
2023/07/06 10:00:33.969, True, 0.995, 0.155642
2023/07/06 10:00:34.473, True, 0.663, 0.155871
2023/07/06 10:00:34.969, True, 1.011, 0.155184
2023/07/06 10:00:35.473, True, 0.995, 0.154726
2023/07/06 10:00:35.977, True, 0.663, 0.154421
2023/07/06 10:00:36.481, True, 0.995, 0.155108
2023/07/06 10:00:36.977, True, 1.011, 0.155795
2023/07/06 10:00:37.481, True, 0.665, 0.156252
2023/07/06 10:00:37.977, True, 1.009, 0.156023
2023/07/06 10:00:38.481, True, 0.995, 0.155489
2023/07/06 10:00:38.985, True, 0.995, 0.153735
2023/07/06 10:00:39.481, True, 0.674, 0.155871
2023/07/06 10:00:39.985, True, 0.995, 0.153811
2023/07/06 10:00:40.489, True, 0.995, 0.155108
2023/07/06 10:00:40.993, True, 0.663, 0.159991
2023/07/06 10:00:41.489, True, 1.012, 0.156176
2023/07/06 10:00:41.993, True, 0.996, 0.155489
2023/07/06 10:00:42.497, True, 0.662, 0.155032
2023/07/06 10:00:42.993, True, 1.011, 0.155337
2023/07/06 10:00:43.497, True, 0.995, 0.159457
2023/07/06 10:00:44.001, True, 0.663, 0.154498
2023/07/06 10:00:44.497, True, 1.011, 0.154269
2023/07/06 10:00:45.001, True, 0.995, 0.154498
2023/07/06 10:00:45.505, True, 0.995, 0.154879
2023/07/06 10:00:46.001, True, 0.674, 0.157549
2023/07/06 10:00:46.505, True, 0.996, 0.155566
2023/07/06 10:00:47.009, True, 0.993, 0.155108
2023/07/06 10:00:47.505, True, 0.675, 0.155337
2023/07/06 10:00:48.008, True, 0.994, 0.152819
2023/07/06 10:00:48.513, True, 0.996, 0.156405
2023/07/06 10:00:49.008, True, 0.673, 0.155413
2023/07/06 10:00:49.513, True, 0.996, 0.156481
2023/07/06 10:00:50.017, True, 0.662, 0.159152
2023/07/06 10:00:50.513, True, 1.011, 0.156558
2023/07/06 10:00:51.017, True, 0.996, 0.155261
2023/07/06 10:00:51.521, True, 0.994, 0.153964
2023/07/06 10:00:52.017, True, 1.011, 0.156481
2023/07/06 10:00:52.521, True, 0.664, 0.154421
2023/07/06 10:00:53.025, True, 0.994, 0.154803
2023/07/06 10:00:53.520, True, 1.011, 0.157549
2023/07/06 10:00:54.024, True, 0.995, 0.155489
2023/07/06 10:00:54.529, True, 0.663, 0.155871
2023/07/06 10:00:55.033, True, 0.997, 0.156710
2023/07/06 10:00:55.528, True, 1.010, 0.157244
2023/07/06 10:00:56.033, True, 0.662, 0.155795
2023/07/06 10:00:56.537, True, 0.996, 0.155795
2023/07/06 10:00:57.033, True, 1.010, 0.155871
2023/07/06 10:00:57.537, True, 0.995, 0.155337
2023/07/06 10:00:58.041, True, 0.996, 0.158694
2023/07/06 10:00:58.537, True, 0.673, 0.153201
2023/07/06 10:00:59.041, True, 0.995, 0.155337
2023/07/06 10:00:59.545, True, 0.997, 0.152590
2023/07/06 10:01:00.040, True, 1.011, 0.156100
2023/07/06 10:01:00.545, True, 0.662, 0.153048
2023/07/06 10:01:01.049, True, 0.995, 0.154574
2023/07/06 10:01:01.545, True, 1.011, 0.156405
2023/07/06 10:01:02.049, True, 0.663, 0.158236
2023/07/06 10:01:02.553, True, 0.995, 0.155947
2023/07/06 10:01:03.049, True, 0.674, 0.156405
2023/07/06 10:01:03.553, True, 0.996, 0.154421
2023/07/06 10:01:04.057, True, 0.993, 0.155566
2023/07/06 10:01:04.552, True, 1.011, 0.157931
2023/07/06 10:01:05.057, True, 0.994, 0.157549
2023/07/06 10:01:05.561, True, 0.663, 0.157397
2023/07/06 10:01:06.065, True, 0.995, 0.155795
2023/07/06 10:01:06.560, True, 1.012, 0.156634
2023/07/06 10:01:07.065, True, 0.994, 0.157397
2023/07/06 10:01:07.569, True, 0.663, 0.157855
2023/07/06 10:01:08.065, True, 1.011, 0.156176
2023/07/06 10:01:08.569, True, 0.994, 0.159991
2023/07/06 10:01:09.072, True, 0.663, 0.155642
2023/07/06 10:01:09.569, True, 1.011, 0.157778
2023/07/06 10:01:10.073, True, 0.996, 0.155947
2023/07/06 10:01:10.577, True, 0.663, 0.156710
2023/07/06 10:01:11.073, True, 1.011, 0.156176
2023/07/06 10:01:11.577, True, 0.995, 0.157931
2023/07/06 10:01:12.081, True, 0.995, 0.158007
2023/07/06 10:01:12.577, True, 1.011, 0.156710
2023/07/06 10:01:13.081, True, 0.995, 0.160067
2023/07/06 10:01:13.585, True, 0.663, 0.158618
2023/07/06 10:01:14.089, True, 0.995, 0.157168
2023/07/06 10:01:14.585, True, 1.011, 0.159533
2023/07/06 10:01:15.089, True, 0.663, 0.157168
2023/07/06 10:01:15.593, True, 0.995, 0.159533
2023/07/06 10:01:16.089, True, 1.011, 0.159228
2023/07/06 10:01:16.593, True, 0.997, 0.158083
2023/07/06 10:01:17.097, True, 0.662, 0.160067
2023/07/06 10:01:17.593, True, 1.011, 0.159762
2023/07/06 10:01:18.097, True, 0.995, 0.157931
2023/07/06 10:01:18.601, True, 0.663, 0.159304
2023/07/06 10:01:19.097, True, 1.011, 0.160296
2023/07/06 10:01:19.600, True, 0.995, 0.160754
2023/07/06 10:01:20.105, True, 0.663, 0.159457
2023/07/06 10:01:20.601, True, 1.010, 0.158083
2023/07/06 10:01:21.105, True, 0.995, 0.161517
2023/07/06 10:01:21.609, True, 0.664, 0.160372
2023/07/06 10:01:22.105, True, 1.009, 0.161517
2023/07/06 10:01:22.608, True, 0.995, 0.158999
2023/07/06 10:01:23.113, True, 0.995, 0.159991
2023/07/06 10:01:23.609, True, 0.674, 0.160678
2023/07/06 10:01:24.113, True, 0.995, 0.160372
2023/07/06 10:01:24.617, True, 0.995, 0.162737
2023/07/06 10:01:25.113, True, 0.674, 0.162203
2023/07/06 10:01:25.617, True, 0.995, 0.162814
2023/07/06 10:01:26.121, True, 0.995, 0.161517
2023/07/06 10:01:26.617, True, 0.674, 0.161593
2023/07/06 10:01:27.121, True, 0.994, 0.162127
2023/07/06 10:01:27.625, True, 0.994, 0.162509
2023/07/06 10:01:28.121, True, 0.675, 0.160449
2023/07/06 10:01:28.625, True, 0.993, 0.160906
2023/07/06 10:01:29.129, True, 0.994, 0.161364
2023/07/06 10:01:29.625, True, 1.011, 0.160296
2023/07/06 10:01:30.129, True, 0.995, 0.159991
2023/07/06 10:01:30.633, True, 0.994, 0.160143
2023/07/06 10:01:31.129, True, 0.674, 0.163348
2023/07/06 10:01:31.633, True, 0.996, 0.163806
2023/07/06 10:01:32.137, True, 0.664, 0.161898
2023/07/06 10:01:32.633, True, 1.011, 0.164874
2023/07/06 10:01:33.137, True, 0.994, 0.162814
2023/07/06 10:01:33.641, True, 0.664, 0.160754
2023/07/06 10:01:34.137, True, 1.009, 0.164034
2023/07/06 10:01:34.641, True, 0.664, 0.161212
2023/07/06 10:01:35.145, True, 0.995, 0.160449
2023/07/06 10:01:35.641, True, 0.674, 0.163272
2023/07/06 10:01:36.145, True, 0.996, 0.159991
2023/07/06 10:01:36.648, True, 0.995, 0.162890
2023/07/06 10:01:37.144, True, 0.674, 0.161669
2023/07/06 10:01:37.649, True, 0.995, 0.163119
2023/07/06 10:01:38.153, True, 0.993, 0.163806
2023/07/06 10:01:38.657, True, 0.996, 0.163806
2023/07/06 10:01:39.152, True, 1.011, 0.161975
2023/07/06 10:01:39.657, True, 0.662, 0.163729
2023/07/06 10:01:40.161, True, 0.995, 0.161898
2023/07/06 10:01:40.656, True, 0.675, 0.162356
2023/07/06 10:01:41.161, True, 0.994, 0.162966
2023/07/06 10:01:41.664, True, 0.663, 0.164263
2023/07/06 10:01:42.169, True, 0.996, 0.161822
2023/07/06 10:01:42.665, True, 1.011, 0.162585
2023/07/06 10:01:43.169, True, 0.995, 0.162585
2023/07/06 10:01:43.672, True, 0.663, 0.161822
2023/07/06 10:01:44.169, True, 1.011, 0.163577
2023/07/06 10:01:44.673, True, 0.994, 0.163729
2023/07/06 10:01:45.177, True, 0.996, 0.163195
2023/07/06 10:01:45.673, True, 0.673, 0.163958
2023/07/06 10:01:46.177, True, 0.996, 0.162509
2023/07/06 10:01:46.681, True, 0.994, 0.163729
2023/07/06 10:01:47.177, True, 1.011, 0.162280
2023/07/06 10:01:47.681, True, 0.663, 0.164874
2023/07/06 10:01:48.185, True, 0.995, 0.163729
2023/07/06 10:01:48.680, True, 1.011, 0.164797
2023/07/06 10:01:49.185, True, 0.663, 0.164111
2023/07/06 10:01:49.681, True, 1.011, 0.162280
2023/07/06 10:01:50.185, True, 0.664, 0.163348
2023/07/06 10:01:50.689, True, 0.994, 0.165026
2023/07/06 10:01:51.185, True, 1.011, 0.163500
2023/07/06 10:01:51.689, True, 0.663, 0.164263
2023/07/06 10:01:52.193, True, 0.995, 0.163577
2023/07/06 10:01:52.689, True, 1.011, 0.164416
2023/07/06 10:01:53.193, True, 0.995, 0.164034
2023/07/06 10:01:53.697, True, 0.995, 0.163195
2023/07/06 10:01:54.193, True, 0.674, 0.163882
2023/07/06 10:01:54.697, True, 0.995, 0.164645
2023/07/06 10:01:55.201, True, 0.663, 0.162203
2023/07/06 10:01:55.697, True, 1.011, 0.163500
2023/07/06 10:01:56.201, True, 0.663, 0.164034
2023/07/06 10:01:56.705, True, 0.996, 0.161135
2023/07/06 10:01:57.201, True, 1.009, 0.165255
2023/07/06 10:01:57.705, True, 0.663, 0.163348
2023/07/06 10:01:58.209, True, 0.995, 0.163577
2023/07/06 10:01:58.705, True, 1.012, 0.163424
2023/07/06 10:01:59.209, True, 0.663, 0.165103
2023/07/06 10:01:59.713, True, 0.995, 0.163424
2023/07/06 10:02:00.208, True, 1.011, 0.164874
2023/07/06 10:02:00.713, True, 0.664, 0.164340
2023/07/06 10:02:01.217, True, 0.993, 0.163043
2023/07/06 10:02:01.713, True, 1.011, 0.163272
2023/07/06 10:02:02.217, True, 0.663, 0.164721
2023/07/06 10:02:02.721, True, 0.995, 0.163043
2023/07/06 10:02:03.225, True, 0.995, 0.164187
2023/07/06 10:02:03.721, True, 0.674, 0.162966
2023/07/06 10:02:04.225, True, 0.995, 0.162814
2023/07/06 10:02:04.729, True, 0.995, 0.163348
2023/07/06 10:02:05.225, True, 1.011, 0.164263
2023/07/06 10:02:05.729, True, 0.663, 0.163729
2023/07/06 10:02:06.233, True, 0.995, 0.164492
2023/07/06 10:02:06.729, True, 1.011, 0.164034
2023/07/06 10:02:07.233, True, 0.663, 0.164721
2023/07/06 10:02:07.736, True, 0.995, 0.164645
2023/07/06 10:02:08.233, True, 1.011, 0.164187
2023/07/06 10:02:08.737, True, 0.663, 0.163577
2023/07/06 10:02:09.241, True, 0.995, 0.164645
2023/07/06 10:02:09.737, True, 1.011, 0.163348
2023/07/06 10:02:10.241, True, 0.664, 0.162890
2023/07/06 10:02:10.745, True, 0.994, 0.164721
2023/07/06 10:02:11.249, True, 0.995, 0.163500
2023/07/06 10:02:11.745, True, 1.011, 0.165789
2023/07/06 10:02:12.249, True, 0.663, 0.161975
2023/07/06 10:02:12.753, True, 0.996, 0.165179
2023/07/06 10:02:13.249, True, 0.673, 0.163195
2023/07/06 10:02:13.753, True, 0.995, 0.168917
2023/07/06 10:02:14.257, True, 0.995, 0.165789
2023/07/06 10:02:14.753, True, 0.673, 0.161593
2023/07/06 10:02:15.257, True, 0.995, 0.164721
2023/07/06 10:02:15.761, True, 0.995, 0.164187
2023/07/06 10:02:16.257, True, 1.012, 0.164721
2023/07/06 10:02:16.761, True, 0.993, 0.163958
2023/07/06 10:02:17.265, True, 0.663, 0.163272
2023/07/06 10:02:17.761, True, 1.011, 0.164111
2023/07/06 10:02:18.265, True, 0.995, 0.162585
2023/07/06 10:02:18.769, True, 0.663, 0.163653
2023/07/06 10:02:19.273, True, 0.996, 0.163729
2023/07/06 10:02:19.769, True, 0.673, 0.161822
2023/07/06 10:02:20.273, True, 0.995, 0.165560
2023/07/06 10:02:20.777, True, 0.995, 0.162585
2023/07/06 10:02:21.281, True, 0.995, 0.163577
2023/07/06 10:02:21.777, True, 0.674, 0.162127
2023/07/06 10:02:22.281, True, 0.995, 0.161212
2023/07/06 10:02:22.785, True, 0.996, 0.164950
2023/07/06 10:02:23.281, True, 1.012, 0.162280
2023/07/06 10:02:23.784, True, 0.662, 0.164034
2023/07/06 10:02:24.289, True, 0.995, 0.164187
2023/07/06 10:02:24.785, True, 0.674, 0.163729
2023/07/06 10:02:25.289, True, 0.995, 0.163195
2023/07/06 10:02:25.793, True, 0.995, 0.164187
2023/07/06 10:02:26.289, True, 0.674, 0.161975
2023/07/06 10:02:26.793, True, 0.995, 0.164797
2023/07/06 10:02:27.297, True, 0.664, 0.165332
2023/07/06 10:02:27.793, True, 1.009, 0.165789
2023/07/06 10:02:28.297, True, 0.995, 0.162966
2023/07/06 10:02:28.793, True, 1.011, 0.161288
2023/07/06 10:02:29.297, True, 0.664, 0.165332
2023/07/06 10:02:29.801, True, 0.994, 0.164263
2023/07/06 10:02:30.297, True, 1.010, 0.165560
2023/07/06 10:02:30.801, True, 0.663, 0.163043
2023/07/06 10:02:31.305, True, 0.995, 0.162280
2023/07/06 10:02:31.801, True, 1.011, 0.162509
2023/07/06 10:02:32.305, True, 0.663, 0.164721
2023/07/06 10:02:32.809, True, 0.995, 0.163272
2023/07/06 10:02:33.313, True, 0.995, 0.163348
2023/07/06 10:02:33.809, True, 1.013, 0.164340
2023/07/06 10:02:34.313, True, 0.663, 0.163272
2023/07/06 10:02:34.816, True, 0.993, 0.162585
2023/07/06 10:02:35.321, True, 0.995, 0.166323
2023/07/06 10:02:35.817, True, 0.674, 0.165789
2023/07/06 10:02:36.321, True, 0.663, 0.162661
2023/07/06 10:02:36.825, True, 0.995, 0.164492
2023/07/06 10:02:37.321, True, 1.011, 0.162280
2023/07/06 10:02:37.825, True, 0.663, 0.161288
2023/07/06 10:02:38.329, True, 0.996, 0.163119
2023/07/06 10:02:38.825, True, 1.010, 0.162966
2023/07/06 10:02:39.329, True, 0.663, 0.163348
2023/07/06 10:02:39.833, True, 0.995, 0.161669
2023/07/06 10:02:40.329, True, 1.012, 0.164721
2023/07/06 10:02:40.833, True, 0.662, 0.163806
2023/07/06 10:02:41.337, True, 0.995, 0.164721
2023/07/06 10:02:41.833, True, 1.012, 0.162661
2023/07/06 10:02:42.337, True, 0.662, 0.162814
2023/07/06 10:02:42.841, True, 0.996, 0.162814
2023/07/06 10:02:43.337, True, 1.011, 0.162737
2023/07/06 10:02:43.841, True, 0.662, 0.163500
2023/07/06 10:02:44.345, True, 0.995, 0.166018
2023/07/06 10:02:44.840, True, 1.011, 0.165026
2023/07/06 10:02:45.345, True, 0.663, 0.161822
2023/07/06 10:02:45.849, True, 0.995, 0.162203
2023/07/06 10:02:46.345, True, 1.011, 0.163500
2023/07/06 10:02:46.849, True, 0.663, 0.163882
2023/07/06 10:02:47.353, True, 0.995, 0.163043
2023/07/06 10:02:47.857, True, 0.997, 0.162127
2023/07/06 10:02:48.353, True, 0.673, 0.162356
2023/07/06 10:02:48.857, True, 0.995, 0.163806
2023/07/06 10:02:49.361, True, 0.996, 0.162127
2023/07/06 10:02:49.857, True, 0.674, 0.161746
2023/07/06 10:02:50.361, True, 0.993, 0.164950
2023/07/06 10:02:50.865, True, 0.995, 0.163653
2023/07/06 10:02:51.361, True, 0.674, 0.164263
2023/07/06 10:02:51.865, True, 0.995, 0.161669
2023/07/06 10:02:52.369, True, 0.994, 0.162509
2023/07/06 10:02:52.864, True, 0.674, 0.163119
2023/07/06 10:02:53.369, True, 0.997, 0.162966
2023/07/06 10:02:53.873, True, 0.662, 0.160754
2023/07/06 10:02:54.369, True, 1.011, 0.165103
2023/07/06 10:02:54.873, True, 0.663, 0.163272
2023/07/06 10:02:55.377, True, 0.996, 0.164950
2023/07/06 10:02:55.873, True, 1.010, 0.163195
2023/07/06 10:02:56.377, True, 0.665, 0.162127
2023/07/06 10:02:56.881, True, 0.995, 0.162585
2023/07/06 10:02:57.377, True, 1.009, 0.161517
2023/07/06 10:02:57.881, True, 0.995, 0.162966
2023/07/06 10:02:58.385, True, 0.664, 0.162203
2023/07/06 10:02:58.881, True, 1.012, 0.163424
2023/07/06 10:02:59.385, True, 0.994, 0.163195
2023/07/06 10:02:59.889, True, 0.664, 0.162356
2023/07/06 10:03:00.384, True, 1.010, 0.162356
2023/07/06 10:03:00.889, True, 0.995, 0.163958
2023/07/06 10:03:01.393, True, 0.662, 0.161669
2023/07/06 10:03:01.896, True, 0.996, 0.162814
2023/07/06 10:03:02.393, True, 0.674, 0.160754
2023/07/06 10:03:02.897, True, 0.993, 0.161822
2023/07/06 10:03:03.401, True, 0.995, 0.163043
2023/07/06 10:03:03.897, True, 0.675, 0.161669
2023/07/06 10:03:04.401, True, 0.994, 0.161059
2023/07/06 10:03:04.905, True, 0.995, 0.162814
2023/07/06 10:03:05.401, True, 0.674, 0.164950
2023/07/06 10:03:05.905, True, 0.995, 0.161059
2023/07/06 10:03:06.409, True, 0.663, 0.162661
2023/07/06 10:03:06.905, True, 1.012, 0.162814
2023/07/06 10:03:07.409, True, 0.663, 0.162585
2023/07/06 10:03:07.913, True, 0.664, 0.162432
2023/07/06 10:03:08.417, True, 0.994, 0.162737
2023/07/06 10:03:08.913, True, 1.011, 0.161669
2023/07/06 10:03:09.417, True, 0.663, 0.162203
2023/07/06 10:03:09.921, True, 0.995, 0.162127
2023/07/06 10:03:10.417, True, 1.011, 0.161746
2023/07/06 10:03:10.921, True, 0.995, 0.164187
2023/07/06 10:03:11.425, True, 0.663, 0.162966
2023/07/06 10:03:11.921, True, 1.011, 0.162814
2023/07/06 10:03:12.425, True, 0.663, 0.162737
2023/07/06 10:03:12.929, True, 0.995, 0.162737
2023/07/06 10:03:13.424, True, 1.010, 0.162661
2023/07/06 10:03:13.929, True, 0.663, 0.163272
2023/07/06 10:03:14.425, True, 1.012, 0.163729
2023/07/06 10:03:14.929, True, 0.994, 0.161364
2023/07/06 10:03:15.433, True, 0.994, 0.164263
2023/07/06 10:03:15.929, True, 0.674, 0.162966
2023/07/06 10:03:16.432, True, 0.994, 0.163424
2023/07/06 10:03:16.937, True, 0.663, 0.163577
2023/07/06 10:03:17.433, True, 1.012, 0.162051
2023/07/06 10:03:17.937, True, 0.662, 0.162966
2023/07/06 10:03:18.441, True, 0.995, 0.163653
2023/07/06 10:03:18.937, True, 1.012, 0.163806
2023/07/06 10:03:19.441, True, 0.663, 0.162966
2023/07/06 10:03:19.945, True, 0.995, 0.160525
2023/07/06 10:03:20.441, True, 1.011, 0.162280
2023/07/06 10:03:20.945, True, 0.663, 0.162280
2023/07/06 10:03:21.449, True, 0.995, 0.163348
2023/07/06 10:03:21.945, True, 0.674, 0.162127
2023/07/06 10:03:22.449, True, 0.995, 0.163653
2023/07/06 10:03:22.953, True, 0.994, 0.161440
2023/07/06 10:03:23.457, True, 0.663, 0.161288
2023/07/06 10:03:23.953, True, 1.011, 0.161898
2023/07/06 10:03:24.457, True, 0.663, 0.161212
2023/07/06 10:03:24.953, True, 1.013, 0.161669
2023/07/06 10:03:25.457, True, 0.993, 0.162814
2023/07/06 10:03:25.961, True, 0.995, 0.162890
2023/07/06 10:03:26.465, True, 0.663, 0.163119
2023/07/06 10:03:26.961, True, 0.674, 0.161898
2023/07/06 10:03:27.465, True, 0.994, 0.162966
2023/07/06 10:03:27.969, True, 0.665, 0.161059
2023/07/06 10:03:28.465, True, 1.009, 0.164569
2023/07/06 10:03:28.969, True, 0.995, 0.160449
2023/07/06 10:03:29.473, True, 0.995, 0.164187
2023/07/06 10:03:29.969, True, 0.674, 0.162432
2023/07/06 10:03:30.473, True, 0.995, 0.161440
2023/07/06 10:03:30.977, True, 0.663, 0.161288
2023/07/06 10:03:31.473, True, 1.011, 0.163882
2023/07/06 10:03:31.977, True, 0.994, 0.160372
2023/07/06 10:03:32.481, True, 0.995, 0.160678
2023/07/06 10:03:32.977, True, 0.674, 0.162127
2023/07/06 10:03:33.481, True, 0.995, 0.162051
2023/07/06 10:03:33.985, True, 0.995, 0.161288
2023/07/06 10:03:34.481, True, 0.674, 0.161746
2023/07/06 10:03:34.985, True, 0.995, 0.163195
2023/07/06 10:03:35.489, True, 0.994, 0.163424
2023/07/06 10:03:35.985, True, 0.674, 0.161593
2023/07/06 10:03:36.489, True, 0.995, 0.159762
2023/07/06 10:03:36.993, True, 0.995, 0.161975
2023/07/06 10:03:37.489, True, 0.674, 0.161440
2023/07/06 10:03:37.993, True, 0.995, 0.162432
2023/07/06 10:03:38.497, True, 0.996, 0.162356
2023/07/06 10:03:38.992, True, 0.673, 0.161288
2023/07/06 10:03:39.497, True, 0.996, 0.163577
2023/07/06 10:03:40.001, True, 0.994, 0.160296
2023/07/06 10:03:40.497, True, 0.673, 0.161975
2023/07/06 10:03:41.001, True, 0.995, 0.160601
2023/07/06 10:03:41.505, True, 0.664, 0.161288
2023/07/06 10:03:42.001, True, 1.010, 0.162051
2023/07/06 10:03:42.505, True, 0.995, 0.162203
2023/07/06 10:03:43.009, True, 0.663, 0.162966
2023/07/06 10:03:43.505, True, 1.011, 0.162356
2023/07/06 10:03:44.009, True, 0.995, 0.161898
2023/07/06 10:03:44.505, True, 0.674, 0.163348
2023/07/06 10:03:45.009, True, 0.663, 0.161593
2023/07/06 10:03:45.513, True, 0.996, 0.161517
2023/07/06 10:03:46.017, True, 0.994, 0.160372
2023/07/06 10:03:46.513, True, 1.011, 0.159915
2023/07/06 10:03:47.017, True, 0.663, 0.162127
2023/07/06 10:03:47.513, True, 1.012, 0.161517
2023/07/06 10:03:48.017, True, 0.662, 0.160601
2023/07/06 10:03:48.521, True, 0.996, 0.160906
2023/07/06 10:03:49.017, True, 0.674, 0.162127
2023/07/06 10:03:49.521, True, 0.995, 0.162051
2023/07/06 10:03:50.026, True, 0.995, 0.162661
2023/07/06 10:03:50.529, True, 0.662, 0.161898
2023/07/06 10:03:51.025, True, 1.011, 0.161746
2023/07/06 10:03:51.529, True, 0.664, 0.163806
2023/07/06 10:03:52.025, True, 1.011, 0.162127
2023/07/06 10:03:52.529, True, 0.994, 0.163424
2023/07/06 10:03:53.033, True, 0.663, 0.161288
2023/07/06 10:03:53.529, True, 1.011, 0.160983
2023/07/06 10:03:54.033, True, 0.995, 0.162203
2023/07/06 10:03:54.537, True, 0.997, 0.161212
2023/07/06 10:03:55.040, True, 0.993, 0.162051
2023/07/06 10:03:55.537, True, 0.674, 0.162585
2023/07/06 10:03:56.041, True, 0.995, 0.163424
2023/07/06 10:03:56.545, True, 0.995, 0.162356
2023/07/06 10:03:57.049, True, 0.663, 0.162966
2023/07/06 10:03:57.545, True, 1.011, 0.161517
2023/07/06 10:03:58.049, True, 0.995, 0.161517
2023/07/06 10:03:58.545, True, 0.674, 0.161898
2023/07/06 10:03:59.049, True, 0.995, 0.161822
2023/07/06 10:03:59.553, True, 0.995, 0.159991
2023/07/06 10:04:00.057, True, 0.664, 0.159762
2023/07/06 10:04:00.553, True, 1.010, 0.160372
2023/07/06 10:04:01.057, True, 0.994, 0.162127
2023/07/06 10:04:01.561, True, 0.663, 0.161059
2023/07/06 10:04:02.057, True, 1.011, 0.160983
2023/07/06 10:04:02.561, True, 0.663, 0.162890
2023/07/06 10:04:03.057, True, 1.011, 0.161746
2023/07/06 10:04:03.561, True, 0.994, 0.162203
2023/07/06 10:04:04.065, True, 0.663, 0.162890
2023/07/06 10:04:04.561, True, 1.011, 0.162966
2023/07/06 10:04:05.065, True, 0.663, 0.162051
2023/07/06 10:04:05.569, True, 0.995, 0.158312
2023/07/06 10:04:06.065, True, 1.011, 0.159915
2023/07/06 10:04:06.569, True, 0.663, 0.160983
2023/07/06 10:04:07.073, True, 0.995, 0.160449
2023/07/06 10:04:07.569, True, 1.011, 0.160143
2023/07/06 10:04:08.073, True, 0.663, 0.162280
2023/07/06 10:04:08.577, True, 0.996, 0.160296
2023/07/06 10:04:09.081, True, 0.662, 0.160525
2023/07/06 10:04:09.577, True, 1.013, 0.161440
2023/07/06 10:04:10.081, True, 0.993, 0.159609
2023/07/06 10:04:10.585, True, 0.663, 0.164111
2023/07/06 10:04:11.089, True, 0.995, 0.167010
2023/07/06 10:04:11.585, True, 1.011, 0.162966
2023/07/06 10:04:12.089, True, 0.663, 0.161669
2023/07/06 10:04:12.593, True, 0.995, 0.163195
2023/07/06 10:04:13.089, True, 1.011, 0.159152